TimeEST,TemperatureF,Dew PointF,Humidity,Sea Level PressureIn,VisibilityMPH,Wind Direction,Wind SpeedMPH,Gust SpeedMPH,PrecipitationIn,Events,Conditions,WindDirDegrees,DateUTC
12:55 AM,18.5,-2.7,39,30.32,10.0,NW,9.2,-,N/A,,Partly Cloudy,320,2013-01-23 05:55:00
1:55 AM,18.3,-2.7,40,30.33,10.0,NW,5.8,-,N/A,,Mostly Cloudy,320,2013-01-23 06:55:00
2:55 AM,18.0,-1.1,43,30.35,10.0,NNW,3.5,-,N/A,,Overcast,330,2013-01-23 07:55:00
3:55 AM,16.3,-0.0,49,30.34,10.0,Calm,Calm,-,N/A,,Clear,0,2013-01-23 08:55:00
4:55 AM,13.5,0.9,57,30.34,10.0,Calm,Calm,-,N/A,,Clear,0,2013-01-23 09:55:00
5:55 AM,11.5,3.7,71,30.35,10.0,Calm,Calm,-,N/A,,Clear,0,2013-01-23 10:55:00
6:55 AM,10.2,3.7,75,30.36,10.0,Calm,Calm,-,N/A,,Clear,0,2013-01-23 11:55:00
7:55 AM,10.8,4.1,75,30.37,10.0,Calm,Calm,-,N/A,,Clear,0,2013-01-23 12:55:00
8:55 AM,18.5,1.9,49,30.38,10.0,WNW,11.5,-,N/A,,Clear,300,2013-01-23 13:55:00
9:55 AM,21.0,0.1,40,30.38,10.0,WNW,9.2,-,N/A,,Clear,300,2013-01-23 14:55:00
10:55 AM,23.0,-0.8,36,30.37,10.0,NW,8.1,-,N/A,,Clear,310,2013-01-23 15:55:00
11:55 AM,24.4,-0.8,34,30.33,10.0,West,6.9,-,N/A,,Clear,270,2013-01-23 16:55:00
12:55 PM,25.5,-0.8,32,30.29,10.0,WNW,8.1,-,N/A,,Clear,290,2013-01-23 17:55:00
1:55 PM,26.1,-1.5,30,30.26,10.0,Variable,4.6,-,N/A,,Overcast,0,2013-01-23 18:55:00
2:55 PM,26.2,-1.3,30,30.25,10.0,Variable,4.6,-,N/A,,Overcast,0,2013-01-23 19:55:00
4:55 PM,26.6,-3.1,28,30.24,10.0,West,4.6,-,N/A,,Scattered Clouds,260,2013-01-23 21:55:00
5:55 PM,26.6,-2.6,28,30.23,10.0,WNW,3.5,-,N/A,,Overcast,290,2013-01-23 22:55:00
6:55 PM,25.7,3.2,38,30.22,10.0,Calm,Calm,-,N/A,,Overcast,0,2013-01-23 23:55:00
7:55 PM,24.8,1.9,37,30.20,10.0,Calm,Calm,-,N/A,,Overcast,0,2013-01-24 00:55:00
8:55 PM,25.7,1.6,35,30.20,10.0,Calm,Calm,-,N/A,,Overcast,0,2013-01-24 01:55:00
9:55 PM,25.7,0.9,34,30.20,10.0,NNE,4.6,-,N/A,,Overcast,20,2013-01-24 02:55:00
10:27 PM,24.8,3.2,40,30.20,10.0,Calm,Calm,-,N/A,,Overcast,0,2013-01-24 03:27:00
10:55 PM,24.3,9.9,54,30.20,10.0,Calm,Calm,-,0.00,,Overcast,0,2013-01-24 03:55:00
11:23 PM,23.0,14.0,68,30.19,7.0,North,3.5,-,N/A,Snow,Light Snow,350,2013-01-24 04:23:00
11:26 PM,23.0,14.0,68,30.19,7.0,North,3.5,-,N/A,Snow,Light Snow,350,2013-01-24 04:26:00
11:55 PM,21.6,16.5,81,30.18,3.0,Calm,Calm,-,0.00,Snow,Light Snow,0,2013-01-24 04:55:00